Terminal Aerodrome Forecast
Issued by NWS Sterling, VA

Current Version | Previous Version | Graphics & Text | Print | Product List | Glossary On
Versions: 1 2 3 4 5 6 7 8 9 10 11 12 13 14 15 16 17 18 19 20 21 22 23 24 25 26 27 28 29 30 31
000
FTUS41 KLWX 261304 AAA
TAFIAD
TAF AMD
KIAD 261304Z 2613/2718 19010KT P6SM VCSH BKN015 OVC050
      WS020/21040KT
     FM261400 19010KT 3SM SHRA BKN008 OVC050 WS020/21040KT
     FM261500 19012KT P6SM BKN015
     FM261700 21016G25KT P6SM SCT050
     FM262300 23009KT 3SM SHRA BKN025 OVC100
     FM270200 30013G21KT 5SM -SHRA BKN015 OVC045
     FM270700 34008KT 5SM -SHRA BKN015 OVC050
     FM271300 33012G20KT P6SM OVC050=

USA.gov is the U.S. government's official web portal to all federal, state and local government web resources and services.